Regional Weather Roundup
Issued by NWS

Home | Current Version | Previous Version | Text Only | Print | Product List | Glossary Off
Versions: 1 2 3 4 5 6 7 8 9 10 11 12 13 14 15 16 17 18 19 20 21 22 23 24 25 26 27 28 29 30 31 32 33 34 35 36 37 38 39 40 41 42 43 44 45 46 47 48 49 50

773
ASUS44 KLIX 010201
RWRLA
LOUISIANA WEATHER ROUNDUP
NATIONAL WEATHER SERVICE NEW ORLEANS LA
900 PM CDT TUE SEP 30 2014

NOTE: "FAIR" INDICATES FEW OR NO CLOUDS BELOW 12,000 FEET WITH NO
      SIGNIFICANT WEATHER AND/OR OBSTRUCTIONS TO VISIBILITY.
      SKY/WX - SKY CONDITION AND SIGNIFICANT WEATHER.
      TMP - AIR TEMPERATURE.    DP   - DEWPOINT TEMPERATURE.
      RH  - RELATIVE HUMIDITY.  PRES - PRESSURE.
      HX  - HEAT INDEX.         WCI  - WIND CHILL INDEX.

*  THESE STATIONS ARE NOT NWS OR FAA STATIONS AND ARE NOT UNDER
   NWS QUALITY CONTROL.

LAZ040-048-061>063-065-066-069-010300-
SOUTHEAST LOUISIANA

CITY           SKY/WX    TMP DP  RH WIND       PRES   REMARKS
N.O. AUDUBON     N/A     78  75  90 MISG        N/A
N.O. INTL ARPT PTCLDY    78  71  79 SE9       29.87R
N.O. LAKEFRONT CLEAR     78  72  81 SE9       29.88R
N.O. DOWNTOWN* FAIR      79  70  73 SE3       29.88R
SLIDELL        CLEAR     76  72  87 CALM      29.88R
BATON ROUGE    CLEAR     77  68  73 E8        29.86R
BOOTHVILLE     CLEAR     78  74  87 E7        29.88R
BELLE CHASSE   PTCLDY    77  72  84 E6        29.88R
BOGALUSA*        N/A     75  70  85 CALM      29.90R
GALLIANO*      NOT AVBL
NEW ROADS*     FAIR      79  72  79 CALM      29.85R
GONZALES*      FAIR      78  76  95 CALM      29.86R
HAMMOND*       NOT AVBL
HOUMA*         CLEAR    N/A N/A N/A E5        29.87R
PORT FOURCHON* PTCLDY    81  75  83 E8G15     29.90R

$$

LAZ041-044-053-054-010300-
SOUTHWEST LOUISIANA

CITY           SKY/WX    TMP DP  RH WIND       PRES   REMARKS
LAKE CHARLES   CLEAR     78  74  87 S5        29.83R
LAFAYETTE      CLEAR     80  73  79 VRB3      29.84R
PATTERSON      PTCLDY    75  73  94 SE3         N/A
SALT POINT       N/A     81  76  84 CALM      29.84R
NEW IBERIA     CLEAR     76  72  87 SE5       29.85R
CHENAULT AIRPK CLEAR     75  73  94 S3        29.84R

$$

LAZ027-028-010300-
CENTRAL LOUISIANA

CITY           SKY/WX    TMP DP  RH WIND       PRES   REMARKS
FORT POLK      PTCLDY    77  73  86 SE3       29.83R
ALEXANDRIA INT CLEAR     78  71  79 CALM      29.82R
ALEXANDRIA     CLEAR     75  72  90 CALM      29.84R

$$

LAZ001-002-010300-
NORTHWEST LOUISIANA

CITY           SKY/WX    TMP DP  RH WIND       PRES   REMARKS
SHREVEPORT     PTCLDY    80  68  66 SE3       29.82R
BARKSDALE AFB  MOCLDY    76  67  72 SE3       29.82R
DTN SHREVEPORT CLEAR     80  66  62 SE6       29.82R

$$

LAZ014-016-010300-
NORTHEAST LOUISIANA

CITY           SKY/WX    TMP DP  RH WIND       PRES   REMARKS
MONROE         CLEAR     74  68  81 CALM      29.85R
TALLULAH       CLEAR     70  67  90 CALM      29.85R

$$




USA.gov is the U.S. government's official web portal to all federal, state and local government web resources and services.